CZ-6 R/B, 44784

Orbit data source: Space-Track

CZ-6 R/B, 44784 is space debris in LEO originally from a launch on Wed, 13 Nov 2019 UTC launched from the Taiyaun Space Center, China (TSC). Debris objects in space refer to the collection of defunct objects orbiting the Earth. Examples of debris include non-operational satellites, rocket bodies, and fragments generated from explosions, collisions, or faulty payload assembly.

Loading next visibility...
Identifier
44784, 2019-076F
Orbit
LEO
Last TLE update
11 hours ago
Origin
Manufacturer
SAST
Mission
Spacecraft
Bus & Motor
CZ-6 STAGE 3, YF-85 X 4
Mass
~1,000 kg wet, ~1,000 kg dry
Launch date (UTC)
2019-11-13 (6 years ago)
Launch vehicle
Unknown
Launch site
Taiyaun Space Center, China (TSC)
Object type
Payload
Rocket body
Debris
Shape & HBR
Cyl, 4 m
Radar Cross Section
9.057 m², Large (>1 m²)

Expand to show TLE details & history

TLE from 11 hours ago
0 CZ-6 R/B
1 44784U 19076F   25188.90699174 -.00000097  00000-0  17368-4 0  9995
2 44784  45.0096  31.5517 0088654 302.5845  56.6459 14.17979505292829
Epoch: 2025-07-07T21:46Z
TLE epoch observation values (Epoch: 2025-07-07T21:46:04.086Z)
Latitude
-0.00004°
Longitude
138.92504°
Altitude
797.451 km
Speed
7.474 km/s
True Right ascension
02h 06m 12s
True Declination
0° 00' 00"
Sunlit
Object was in daylight at epoch
Visualization orbit readout
Latitude
42.37096°
Longitude
-108.22246°
Altitude
896.672 km
Speed
7.378 km/s
Apparent Right ascension
09h 05m 56s
Apparent Declination
4° 33' 01"
Sunlit
Object is in daylight
Visualization observer readout
Local Sidereal Time
20:31:08
Azimuth
347.722° N
Elevation
-44.818°
Doppler factor
1
Orbital elements
Apogee altitude
897.66 km
Perigee altitude
769.788 km
Semi-major axis
7,211.861 km
Eccentricity
0.00887
Inclination
45.0096°
RAAN
31.5517°
Arg. of periapsis
302.5845°
True anomaly
Unknown
Mean anomaly
56.6459°
Eccentric anomaly
Unknown
Mean motion
3.54382 °/min
Orbital period
101.59 mins
BSTAR
0.000017368
Loading maneuver chart data...
Loading SW <> Apogee altitude chart data...
Loading historical data...
Loading historical data...
Loading historical data...
Loading historical data...
Loading historical data...
Loading historical data...
Loading historical data...
Other satellites on launch #76 in the year 2019 (2019-11-13 UTC)

CZ-6 R/B Visibility forecast

Observer location: undefined°, undefined°

Span
Click to sort rows by Start time (UTC) header in descending order
Start Az.
Max El. time (UTC)
Max El. Az.
Max El.
End time (UTC)
End Az.
4 mins2025-07-08 14:50:25.055Z148.505° SSE2025-07-08 14:52:25.055Z126.464° SE12.656°2025-07-08 14:54:25.055Z105.905° ESE
10 mins2025-07-08 16:33:25.055Z219.675° SW2025-07-08 16:37:25.055Z164.016° S38.79°2025-07-08 16:43:25.055Z71.493° E
10 mins2025-07-08 18:20:25.055Z267.746° W2025-07-08 18:24:25.055Z330.894° NNW41.683°2025-07-08 18:30:25.055Z66.883° ENE
10 mins2025-07-08 20:07:25.055Z291.94° WNW2025-07-08 20:12:25.055Z17.857° NNE38.857°2025-07-08 20:17:25.055Z81.658° E
10 mins2025-07-08 21:54:25.055Z292.865° NW2025-07-08 21:59:25.055Z166.856° S44.909°2025-07-08 22:04:25.055Z117.464° SE
8 mins2025-07-08 23:42:25.055Z265.707° W2025-07-08 23:45:25.055Z226.471° WSW24.792°2025-07-08 23:50:25.055Z167.274° S
|